EHI
0 4 11 14 13 15 17 16 13 9 5 2 1 3 7 9 11 12 9 6 5 5 4 2 1 0 0 0 0 0 0 0 0 0 0 0 0 0 0 0 0 0 0
1 5 12 16 16 17 18 17 14 10 6 2 0 2 5 7 9 9 7 5 4 4 4 3 1 0 0 0 0 0 0 0 0 0 0 0 0 0 0 0 0 0 0
2 5 11 16 18 17 17 16 13 9 5 3 1 2 3 4 4 4 3 2 2 3 3 3 2 1 0 0 0 0 0 0 0 0 0 0 0 0 0 0 0 0 0
4 7 11 16 19 18 16 14 10 5 3 3 3 2 2 2 1 1 1 0 1 2 4 4 3 1 0 0 0 0 0 0 0 0 0 0 0 0 0 0 0 0 0
8 10 13 16 19 20 18 15 9 4 1 2 4 4 3 3 2 1 1 1 0 2 4 5 3 1 0 0 0 0 0 0 0 0 0 0 0 0 0 0 0 0 0
9 11 14 18 20 21 21 17 11 5 3 2 3 5 6 6 4 2 2 2 1 2 5 5 3 2 1 0 0 0 0 0 0 0 0 0 0 0 0 0 0 0 0
10 11 14 18 20 21 21 18 12 7 5 3 3 4 7 8 6 4 4 3 2 3 4 3 2 2 1 0 0 0 0 0 0 0 0 0 0 0 0 0 0 0 0
11 12 15 18 19 19 18 16 12 7 6 5 3 3 6 8 8 7 6 4 3 4 3 1 1 1 1 0 0 0 0 0 0 0 0 0 0 0 0 0 0 0 0
11 12 14 16 15 13 12 11 9 6 5 5 4 3 4 6 6 7 7 5 4 4 3 1 1 1 0 0 0 0 0 0 0 0 0 0 0 0 0 0 0 0 0
10 10 12 12 11 7 6 6 5 3 3 3 3 1 1 2 4 5 6 6 5 4 2 1 1 0 0 0 0 0 0 0 0 0 0 0 0 0 0 0 0 0 0
6 7 8 10 8 5 3 4 3 1 1 2 1 0 0 0 1 3 4 4 4 4 2 0 0 0 0 0 0 0 0 0 0 0 0 0 0 0 0 0 1 1 0
5 5 7 9 8 4 3 3 2 1 0 0 0 0 0 0 0 1 1 1 2 2 1 0 0 0 0 0 0 0 0 0 0 0 0 0 0 0 0 0 1 1 1
5 4 5 7 7 4 2 2 2 1 0 0 0 0 0 0 0 0 0 0 1 1 0 0 0 0 0 0 0 0 0 0 0 0 0 0 0 0 0 0 1 1 0
4 3 4 5 4 2 1 1 1 0 0 0 0 0 0 0 0 0 0 0 0 0 0 0 0 0 0 0 0 0 0 0 0 0 0 0 0 0 0 0 0 0 0
3 3 3 3 2 0 0 0 0 0 0 0 0 0 0 0 0 0 0 0 0 0 0 0 0 0 0 0 0 0 0 0 0 0 0 0 0 0 0 0 0 0 0
1 2 2 2 1 0 0 0 0 0 0 0 0 0 0 0 0 0 1 1 0 0 0 0 0 0 0 0 0 0 0 0 0 0 0 0 0 0 0 0 0 0 0
0 1 1 1 0 0 0 0 0 0 0 0 0 0 0 0 0 0 1 2 1 0 0 0 0 0 0 0 0 0 0 0 0 0 0 0 0 0 0 0 0 0 0
0 0 0 0 0 0 0 0 0 0 0 0 0 0 0 0 0 0 1 1 1 0 0 0 0 0 0 0 0 0 0 0 0 0 0 0 0 0 0 0 0 0 0
0 0 0 0 0 0 0 0 0 0 0 0 0 0 0 0 0 0 0 0 0 0 0 0 0 0 0 0 0 0 0 0 0 0 0 0 0 0 0 0 0 0 0
0 0 0 0 0 0 0 0 0 0 0 0 0 0 0 0 0 0 0 0 0 0 0 0 0 0 0 0 0 0 0 0 0 0 0 0 0 0 0 0 0 0 0
0 0 0 0 0 0 0 0 0 0 0 0 0 0 0 0 0 0 0 0 0 0 0 0 0 0 0 0 0 0 0 0 0 0 0 0 0 0 0 0 0 0 0
0 0 0 0 0 0 0 0 0 0 0 0 0 0 0 0 0 0 0 0 0 0 0 0 0 0 0 0 0 0 0 0 0 0 0 0 0 0 0 0 0 0 0
0 0 0 0 0 0 0 0 0 0 0 0 0 0 0 0 0 0 0 0 0 0 0 0 0 0 0 0 0 0 0 0 0 0 0 0 0 0 0 0 0 0 0
0 0 0 0 0 0 0 0 0 0 0 0 0 0 0 0 0 0 0 0 0 0 0 0 0 0 0 0 0 0 0 0 0 0 0 0 0 0 0 0 0 0 0
0 0 0 0 0 0 0 0 0 0 0 0 0 0 0 0 0 0 0 0 0 0 0 0 0 0 0 0 0 0 0 0 0 0 0 0 0 0 0 0 0 0 0
0 0 0 0 0 0 0 0 0 0 0 0 0 0 0 0 0 0 0 0 0 0 0 0 0 0 0 0 0 0 0 0 0 0 0 0 0 0 0 0 0 0 0
Wind_Speed
4 5 9 10 10 10 10 10 10 10 10 10 10 10 10 11 12 11 12 11 11 11 11 11 11 11 12 12 13 13 13 13 13 13 12 12 13 14 14 13 11 8 13
7 6 9 9 10 9 9 10 9 10 9 9 10 10 10 10 11 11 11 11 11 11 11 11 11 11 11 12 12 12 12 12 13 12 11 10 11 13 13 12 11 8 13
8 7 8 9 9 9 9 10 9 9 9 9 10 10 10 10 10 11 11 11 10 11 11 11 11 11 11 11 11 11 11 11 12 11 9 5 7 12 12 12 11 12 12
9 7 7 8 9 9 9 9 9 9 9 9 9 9 10 10 10 10 10 10 10 10 10 10 11 10 10 10 10 10 10 11 11 10 5 4 5 10 12 12 12 12 12
7 6 7 9 9 9 9 8 8 8 8 8 9 8 9 10 10 10 10 9 9 9 10 10 10 10 9 9 9 9 10 10 10 8 5 4 4 9 11 11 11 11 11
7 6 7 9 10 9 9 8 8 8 9 9 9 9 9 10 10 10 10 9 9 9 9 10 10 9 8 8 8 9 10 9 8 5 4 3 3 9 10 10 10 10 11
7 5 6 9 10 9 9 8 8 8 9 9 10 9 9 10 10 10 10 10 9 9 10 10 10 9 8 8 8 9 9 9 6 4 3 3 4 9 10 10 10 10 10
7 6 6 8 8 9 9 8 8 8 8 9 9 9 9 9 10 10 10 10 10 10 9 9 9 9 8 8 8 8 8 7 6 5 3 3 6 9 9 9 9 9 9
6 6 5 5 5 7 8 8 8 8 9 8 9 9 8 8 9 10 9 10 10 10 9 8 8 8 8 8 8 9 8 8 4 3 4 3 6 8 9 8 8 8 8
5 5 4 4 4 4 5 7 8 8 9 8 8 8 7 7 8 9 8 9 9 9 9 8 8 8 7 7 8 8 8 6 4 3 2 3 7 7 7 7 7 7 7
4 3 4 4 4 4 4 6 6 7 8 7 6 8 6 4 5 5 6 8 8 9 8 8 7 7 6 6 7 8 6 3 4 3 2 5 7 7 7 7 6 6 6
5 4 4 5 4 4 4 3 3 3 4 4 4 4 4 3 3 5 6 7 7 7 7 7 7 6 5 3 4 6 3 4 3 2 2 6 6 6 6 6 6 6 5
6 5 5 6 5 4 3 3 2 2 2 3 4 4 4 4 3 3 3 3 3 5 3 4 4 3 3 2 2 3 3 3 2 1 2 5 5 5 6 6 5 5 5
6 5 5 6 5 4 4 3 3 3 2 3 4 5 4 3 3 3 2 3 2 2 2 2 2 3 3 3 3 3 4 3 2 1 2 5 5 5 5 6 5 5 5
6 6 5 6 6 5 4 4 4 3 3 3 3 4 5 4 4 4 3 3 3 2 3 2 2 3 3 3 3 3 4 4 3 3 2 5 6 5 5 5 5 5 5
7 7 5 6 6 6 5 4 4 3 3 3 3 4 6 5 4 4 4 3 3 3 3 3 3 3 3 3 3 3 4 4 3 3 2 4 6 7 6 5 5 5 5
8 7 7 6 6 6 6 5 4 3 4 3 3 4 6 6 5 5 4 4 3 3 3 3 3 3 3 4 4 3 3 3 3 3 3 2 3 5 7 7 6 5 5
7 7 7 6 5 5 5 5 4 3 4 3 3 3 5 6 6 5 5 4 3 3 3 3 3 3 3 3 3 2 2 3 4 3 3 3 2 2 4 7 6 5 5
8 8 7 6 6 6 5 4 4 4 4 3 4 3 4 6 6 5 5 4 4 4 3 3 3 3 3 3 3 3 2 2 3 3 3 3 2 2 2 4 6 5 5
7 7 7 6 6 5 5 4 3 3 3 3 3 4 5 5 6 5 4 5 5 4 3 3 4 3 3 3 4 4 3 2 2 3 2 2 2 2 2 2 2 3 5
7 7 7 7 7 6 5 5 4 3 3 3 3 5 4 5 6 6 5 5 5 4 3 4 4 4 3 3 3 3 3 3 3 2 1 2 2 2 2 2 1 1 2
8 8 8 8 8 7 5 4 3 4 3 2 3 4 4 5 6 6 6 5 5 5 4 4 4 3 2 1 3 3 1 2 3 2 1 1 1 1 2 1 1 1 1
9 9 8 8 8 7 6 5 4 3 3 2 3 3 3 5 6 6 6 5 5 5 5 4 4 4 3 1 1 3 3 2 1 2 2 1 1 1 1 1 1 1 1
8 8 8 8 7 7 7 7 8 6 5 4 4 3 4 5 5 6 6 6 5 4 5 4 3 3 4 2 0 1 1 3 3 0 1 2 2 1 1 1 1 1 1
7 7 7 7 7 7 7 8 8 6 4 3 4 5 4 4 4 5 5 5 5 4 5 4 3 3 3 3 2 1 1 1 2 2 1 1 2 2 1 1 1 1 1
6 6 7 7 6 7 7 7 8 8 7 7 7 6 4 3 3 4 5 4 4 4 5 4 3 4 3 3 2 2 2 2 2 2 2 1 2 2 2 1 1 1 1
Wind_Direction
166 169 149 142 137 132 127 126 124 121 120 119 118 115 113 112 111 108 108 110 109 109 109 109 106 103 101 100 98 95 91 89 87 85 81 83 89 90 86 81 79 77 82
152 151 140 138 135 132 127 123 127 125 123 124 124 122 120 119 118 118 114 112 110 109 107 107 107 105 103 101 100 97 94 91 89 85 80 80 86 89 88 84 82 85 84
136 139 137 134 132 131 129 127 128 131 131 128 127 124 122 122 122 120 117 115 112 109 109 108 104 103 103 102 101 98 96 94 93 88 82 76 85 90 89 86 86 86 85
137 137 136 135 134 131 132 131 132 137 137 133 131 129 126 124 122 121 120 119 116 111 111 109 107 104 104 103 100 98 97 96 96 91 81 73 83 94 93 91 90 88 85
135 137 139 136 137 135 133 134 138 140 143 138 134 133 132 130 125 120 118 120 118 114 112 112 110 108 105 102 99 98 99 97 95 91 83 75 78 96 95 94 92 90 88
134 136 143 140 139 138 138 139 140 143 142 141 139 136 135 133 130 125 117 115 118 116 116 116 113 111 106 100 99 99 97 95 97 92 85 81 87 99 97 94 95 94 90
138 139 142 142 143 143 143 143 140 141 141 143 143 140 139 137 133 127 122 118 116 120 120 119 116 114 109 101 96 96 96 96 101 95 90 90 103 104 100 97 95 96 94
142 142 141 143 146 148 148 147 146 145 143 144 143 140 139 138 136 130 123 121 120 117 121 121 119 115 110 101 93 88 92 104 105 104 96 100 110 108 103 99 98 95 91
138 141 141 147 147 148 150 151 150 148 145 142 139 135 133 134 134 131 127 124 122 119 115 118 118 116 109 97 89 85 88 95 99 103 104 104 110 110 106 102 100 98 95
135 142 145 142 145 148 148 150 152 147 144 141 134 130 128 128 131 126 126 126 123 120 117 111 111 114 107 94 88 85 85 87 91 92 91 106 110 114 111 109 107 106 101
144 152 152 147 149 150 153 154 152 148 145 139 136 133 130 136 137 130 127 125 124 121 118 113 107 104 101 92 87 85 83 87 94 83 86 104 112 115 113 114 112 111 107
170 175 168 159 162 158 154 144 148 151 148 147 145 143 143 141 137 132 127 126 124 118 116 110 102 92 86 83 82 83 86 92 92 87 90 100 107 111 112 115 115 109 106
179 180 176 171 168 162 151 152 150 146 152 156 157 151 141 134 130 123 126 122 119 113 111 105 97 86 82 89 93 93 96 94 93 87 82 96 107 113 113 116 118 118 113
176 185 181 173 169 166 156 160 157 155 158 166 167 158 146 137 138 141 136 133 126 126 114 100 104 96 85 81 96 102 99 98 97 86 72 77 88 111 113 118 115 116 120
177 181 184 178 174 169 160 164 160 165 166 164 162 162 154 141 149 150 145 138 131 122 122 112 104 101 89 82 87 105 104 101 98 89 71 72 73 81 93 102 112 109 114
183 181 181 180 178 167 163 165 164 167 162 156 156 163 154 144 150 150 144 140 135 130 125 121 115 104 94 92 81 85 95 98 96 93 79 67 64 63 69 82 90 97 103
183 180 182 181 178 172 165 166 162 164 155 156 154 159 155 150 149 151 146 143 140 132 122 110 99 94 94 89 79 75 87 90 95 94 88 76 59 55 59 66 70 75 81
176 177 182 179 174 176 166 161 158 158 152 154 150 148 158 153 150 147 142 141 136 125 120 120 115 104 91 87 81 69 76 87 90 92 86 80 70 55 54 57 52 56 61
177 175 177 172 170 171 158 148 148 147 149 154 149 143 154 149 149 148 143 138 129 121 122 130 120 119 109 91 87 72 57 78 88 95 89 84 76 67 52 54 48 43 45
173 170 168 168 166 159 148 134 130 128 143 152 152 148 144 146 143 140 136 132 127 120 117 125 120 104 113 112 92 68 43 54 73 85 96 88 78 68 57 52 37 26 30
167 165 167 169 166 157 156 157 154 159 155 148 151 143 142 147 145 138 137 133 133 129 131 133 125 113 97 105 91 65 29 34 52 56 74 85 75 67 65 56 45 25 360
176 175 175 173 169 168 170 164 153 144 142 148 144 137 144 155 148 142 142 143 140 129 126 131 127 120 110 103 116 111 72 7 8 15 36 75 72 60 63 60 60 32 348
181 181 182 177 171 168 161 147 132 115 107 124 145 145 146 151 142 140 141 140 141 139 147 148 140 136 143 126 103 134 142 185 269 336 4 33 55 51 30 25 32 11 352
185 179 180 174 168 167 160 161 159 157 160 172 163 145 138 142 139 139 140 140 144 142 147 157 147 141 141 150 117 53 130 150 150 185 335 0 10 10 343 355 1 352 354
175 173 174 166 165 168 167 168 163 157 153 144 140 135 140 135 137 142 144 145 147 146 153 156 148 143 145 153 159 144 101 73 114 145 217 289 334 311 297 289 282 288 314
165 165 164 160 163 168 166 168 165 159 152 147 146 149 150 139 137 143 144 146 151 153 160 161 154 153 157 154 161 162 159 160 170 152 185 231 266 283 298 279 265 269 284